| time (UTC) | temp C | wind direction | speed KPH | gust KPH | rain 1hr cm | rain 24hr cm | rain mn cm | humidity % | barometer mb |
| 20260506115118 | 28 | 0.0 | 0.0 | 0.00 | 0.00 | 0.00 | 45 | 987.5 | |
| 20260506113627 | 20 | 0.0 | 0.0 | 0.00 | 0.00 | 0.00 | 46 | 987.6 | |
| 20260506112207 | 20 | 0.0 | 0.0 | 0.00 | 0.00 | 0.00 | 47 | 987.9 | |
| 20260506104028 | 18 | 0.0 | 0.0 | 0.00 | 0.00 | 0.00 | 49 | 988.2 | |
| 20260506101357 | 17 | 0.0 | 0.0 | 0.00 | 0.00 | 0.00 | 50 | 988.6 | |
| 20260506100058 | 30 | 0.0 | 0.0 | 0.00 | 0.00 | 0.00 | 51 | 988.7 | |
| 20260506093222 | 16 | 0.0 | 0.0 | 0.00 | 0.00 | 0.00 | 52 | 988.5 | |
| 20260506091755 | 16 | 0.0 | 0.0 | 0.00 | 0.00 | 0.00 | 53 | 988.5 | |
| 20260506090418 | 21 | 0.0 | 0.0 | 0.00 | 0.00 | 0.00 | 53 | 988.6 | |
| 20260506082105 | 18 | 0.0 | 0.0 | 0.00 | 0.00 | 0.00 | 56 | 988.8 | |
| 20260506072632 | 13 | 0.0 | 0.0 | 0.00 | 0.00 | 0.00 | 59 | 989.3 | |
| 20260506071339 | 12 | 0.0 | 0.0 | 0.00 | 0.00 | 0.00 | 59 | 989.3 | |
| 20260506062146 | 11 | 0.0 | 0.0 | 0.00 | 0.00 | 0.00 | 61 | 989.5 | |
| 20260506051253 | 13 | 0.0 | 0.0 | 0.00 | 0.00 | 0.00 | 68 | 989.8 | |
| 20260506044518 | 10 | 0.0 | 0.0 | 0.00 | 0.00 | 0.00 | 69 | 989.6 | |
| 20260506040647 | 10 | 0.0 | 0.0 | 0.00 | 0.00 | 0.00 | 70 | 989.5 | |
| 20260506034129 | 10 | 0.0 | 0.0 | 0.00 | 0.00 | 0.00 | 69 | 989.4 | |
| 20260506032727 | 11 | 0.0 | 0.0 | 0.00 | 0.00 | 0.00 | 69 | 989.3 | |
| 20260506025918 | 11 | 0.0 | 0.0 | 0.00 | 0.00 | 0.00 | 68 | 989.3 | |
| 20260506024552 | 10 | 0.0 | 0.0 | 0.00 | 0.00 | 0.00 | 68 | 989.2 | |
| 20260506023242 | 10 | 0.0 | 0.0 | 0.00 | 0.00 | 0.00 | 68 | 989.2 | |
| 20260506020748 | 10 | 0.0 | 0.0 | 0.00 | 0.00 | 0.00 | 66 | 988.9 | |
| 20260506015509 | 10 | 0.0 | 0.0 | 0.00 | 0.00 | 0.00 | 66 | 989.0 | |
| 20260506014050 | 10 | 0.0 | 0.0 | 0.00 | 0.00 | 0.00 | 66 | 988.8 | |
| 20260506012609 | 12 | 0.0 | 0.0 | 0.00 | 0.00 | 0.00 | 65 | 988.9 | |
| 20260506011152 | 12 | 0.0 | 0.0 | 0.00 | 0.00 | 0.00 | 65 | 989.1 | |
| 20260506005937 | 12 | 0.0 | 0.0 | 0.00 | 0.00 | 0.00 | 65 | 989.2 | |
| 20260505231326 | 12 | 0.0 | 0.0 | 0.00 | 0.00 | 0.00 | 61 | 988.9 | |
| 20260505230122 | 12 | 0.0 | 0.0 | 0.00 | 0.00 | 0.00 | 61 | 988.8 | |
| 20260505224637 | 12 | 0.0 | 0.0 | 0.00 | 0.00 | 0.00 | 60 | 988.5 | |
| 20260505221957 | 14 | 0.0 | 0.0 | 0.00 | 0.00 | 0.00 | 59 | 988.5 | |
| 20260505220625 | 13 | 0.0 | 0.0 | 0.00 | 0.00 | 0.00 | 60 | 988.8 | |
| 20260505215356 | 13 | 0.0 | 0.0 | 0.00 | 0.00 | 0.00 | 60 | 988.5 | |
| 20260505211348 | 14 | 0.0 | 0.0 | 0.00 | 0.00 | 0.00 | 63 | 988.8 | |
| 20260505210109 | 13 | 0.0 | 0.0 | 0.00 | 0.00 | 0.00 | 64 | 988.8 | |
| 20260505204702 | 13 | 0.0 | 0.0 | 0.00 | 0.00 | 0.00 | 65 | 988.5 | |
| 20260505200617 | 14 | 0.0 | 0.0 | 0.00 | 0.00 | 0.00 | 59 | 987.2 | |
| 20260505192506 | 16 | 0.0 | 0.0 | 0.00 | 0.00 | 0.00 | 49 | 987.8 | |
| 20260505191253 | 16 | 0.0 | 0.0 | 0.00 | 0.00 | 0.00 | 49 | 987.9 | |
| 20260505185836 | 17 | 0.0 | 0.0 | 0.00 | 0.00 | 0.00 | 49 | 988.1 | |
| 20260505181930 | 17 | 0.0 | 0.0 | 0.00 | 0.00 | 0.00 | 49 | 988.1 | |
| 20260505180537 | 17 | 0.0 | 0.0 | 0.00 | 0.00 | 0.00 | 49 | 987.8 | |
| 20260505173841 | 18 | 0.0 | 0.0 | 0.00 | 0.00 | 0.00 | 48 | 988.2 | |
| 20260505172621 | 17 | 0.0 | 0.0 | 0.00 | 0.00 | 0.00 | 48 | 988.2 | |
| 20260505164512 | 18 | 0.0 | 0.0 | 0.00 | 0.00 | 0.00 | 46 | 988.1 | |
| 20260505161608 | 19 | 0.0 | 0.0 | 0.00 | 0.00 | 0.00 | 46 | 988.1 | |
| 20260505160402 | 20 | 0.0 | 0.0 | 0.00 | 0.00 | 0.00 | 46 | 988.1 | |
| 20260505152333 | 19 | 0.0 | 0.0 | 0.00 | 0.00 | 0.00 | 46 | 988.2 | |
| 20260505140222 | 23 | 0.0 | 0.0 | 0.00 | 0.00 | 0.00 | 35 | 988.5 | |
| 20260505124104 | 23 | 0.0 | 0.0 | 0.00 | 0.00 | 0.00 | 36 | 989.0 |